Time,TemperatureF,DewpointF,PressureIn,WindDirection,WindDirectionDegrees,WindSpeedMPH,WindSpeedGustMPH,Humidity,HourlyPrecipIn,Conditions,Clouds,dailyrainin,SolarRadiationWatts/m^2,SoftwareType,DateUTC
2014-10-25 00:02:00,45.3,43.7,29.94,NE,45,9.0,11.0,94,0.00,,,0.00,0.0,meteohub,2014-10-25 07:02:00,
2014-10-25 00:07:00,45.1,43.5,29.94,ENE,57,7.0,11.0,94,0.00,,,0.00,0.0,meteohub,2014-10-25 07:07:00,
2014-10-25 00:12:00,45.3,43.7,29.94,North,0,8.0,10.0,94,0.00,,,0.00,0.0,meteohub,2014-10-25 07:12:00,
2014-10-25 00:17:00,45.1,43.5,29.94,NE,44,6.0,10.0,94,0.00,,,0.00,0.0,meteohub,2014-10-25 07:17:00,
2014-10-25 00:22:00,45.1,43.9,29.93,NE,34,5.0,10.0,95,0.00,,,0.00,0.0,meteohub,2014-10-25 07:22:00,
2014-10-25 00:27:00,45.1,43.5,29.93,NNE,26,6.0,10.0,94,0.00,,,0.00,0.0,meteohub,2014-10-25 07:27:00,
2014-10-25 00:32:00,45.1,43.5,29.92,ENE,59,8.0,9.0,94,0.00,,,0.00,0.0,meteohub,2014-10-25 07:32:00,
2014-10-25 00:37:00,45.3,43.7,29.92,ENE,71,7.0,9.0,94,0.01,,,0.01,0.0,meteohub,2014-10-25 07:37:00,
2014-10-25 00:42:00,45.1,43.2,29.92,ENE,73,3.0,9.0,93,0.01,,,0.01,0.0,meteohub,2014-10-25 07:42:00,
2014-10-25 00:47:00,45.3,43.7,29.91,North,0,7.0,9.0,94,0.01,,,0.01,0.0,meteohub,2014-10-25 07:47:00,
2014-10-25 00:52:00,45.3,43.3,29.91,ENE,65,3.0,9.0,93,0.01,,,0.01,0.0,meteohub,2014-10-25 07:52:00,
2014-10-25 00:57:00,45.3,43.2,29.91,NE,48,5.0,8.0,92,0.01,,,0.01,0.0,meteohub,2014-10-25 07:57:00,
2014-10-25 01:02:00,45.1,43.5,29.91,North,0,5.0,9.0,94,0.02,,,0.02,0.0,meteohub,2014-10-25 08:02:00,
2014-10-25 01:07:00,45.1,43.5,29.90,NE,40,3.0,9.0,94,0.02,,,0.02,0.0,meteohub,2014-10-25 08:07:00,
2014-10-25 01:12:00,45.1,43.9,29.90,NE,35,2.0,9.0,95,0.02,,,0.02,0.0,meteohub,2014-10-25 08:12:00,
2014-10-25 01:17:00,45.1,43.5,29.90,NNE,17,4.0,7.0,94,0.02,,,0.02,0.0,meteohub,2014-10-25 08:17:00,
2014-10-25 01:22:00,45.1,43.9,29.90,NNW,334,5.0,7.0,95,0.03,,,0.03,0.0,meteohub,2014-10-25 08:22:00,
2014-10-25 01:27:00,45.1,43.9,29.89,North,0,8.0,8.0,95,0.03,,,0.03,0.0,meteohub,2014-10-25 08:27:00,
2014-10-25 01:32:00,45.1,43.9,29.89,North,0,9.0,9.0,95,0.03,,,0.03,0.0,meteohub,2014-10-25 08:32:00,
2014-10-25 01:37:00,45.1,43.5,29.88,North,0,6.0,9.0,94,0.02,,,0.03,0.0,meteohub,2014-10-25 08:37:00,
2014-10-25 01:42:00,45.1,43.2,29.88,NE,44,5.0,11.0,93,0.02,,,0.03,0.0,meteohub,2014-10-25 08:42:00,
2014-10-25 01:47:00,45.1,43.2,29.88,ENE,72,8.0,11.0,93,0.02,,,0.03,0.0,meteohub,2014-10-25 08:47:00,
2014-10-25 01:52:00,45.1,43.0,29.88,NNE,30,5.0,10.0,92,0.02,,,0.03,0.0,meteohub,2014-10-25 08:52:00,
2014-10-25 01:57:00,45.1,43.2,29.87,NE,38,4.0,10.0,93,0.01,,,0.03,0.0,meteohub,2014-10-25 08:57:00,
2014-10-25 02:02:00,45.1,43.0,29.87,ENE,69,8.0,10.0,92,0.01,,,0.03,0.0,meteohub,2014-10-25 09:02:00,
2014-10-25 02:07:00,45.1,43.0,29.86,NE,55,4.0,9.0,92,0.01,,,0.03,0.0,meteohub,2014-10-25 09:07:00,
2014-10-25 02:12:00,45.0,42.4,29.86,NE,56,6.0,9.0,91,0.01,,,0.03,0.0,meteohub,2014-10-25 09:12:00,
2014-10-25 02:17:00,45.0,42.8,29.86,ENE,61,3.0,10.0,92,0.01,,,0.03,0.0,meteohub,2014-10-25 09:17:00,
2014-10-25 02:22:00,45.0,42.4,29.86,NE,56,4.0,10.0,91,0.00,,,0.03,0.0,meteohub,2014-10-25 09:22:00,
2014-10-25 02:27:00,45.0,43.0,29.86,ENE,72,4.0,10.0,93,0.00,,,0.03,0.0,meteohub,2014-10-25 09:27:00,
2014-10-25 02:32:00,45.1,43.0,29.86,North,0,4.0,8.0,92,0.00,,,0.03,0.0,meteohub,2014-10-25 09:32:00,
2014-10-25 02:37:00,45.1,43.0,29.85,North,0,7.0,7.0,92,0.00,,,0.03,0.0,meteohub,2014-10-25 09:37:00,
2014-10-25 02:42:00,45.1,43.2,29.86,NE,36,5.0,9.0,93,0.00,,,0.03,0.0,meteohub,2014-10-25 09:42:00,